Quillayute, WA

5:05 AM PDT on August 18, 2017 (GMT -0700)
Quillayute

Weather History for KUIL - December, 2012

Change the Weather History Date:

Wednesday, December 5, 2012

  Actual Average Record
Temperature  
Mean Temperature 41 °F 41 °F  
Max Temperature 47 °F 47 °F 57 °F (2014)
Min Temperature 35 °F 35 °F 21 °F (2013)
Degree Days  
Heating Degree Days 24 24  
Month to date heating degree days 120  
Since 1 July heating degree days 1834  
Cooling Degree Days 0 0  
Month to date cooling degree days 0  
Year to date cooling degree days 19  
Moisture  
Dew Point 39 °F    
Average Humidity 88    
Maximum Humidity 96    
Minimum Humidity 72    
Precipitation  
Precipitation 0.33 in 0.45 in 2.51 in (1999)
Month to date precipitation 2.34  
Year to date precipitation 88.89  
Sea Level Pressure  
Sea Level Pressure 30.11 in    
Wind  
Wind Speed 5 mph (SSW)    
Max Wind Speed 23 mph    
Max Gust Speed 30 mph    
Visibility 4 miles    
Events Rain    
T = Trace of Precipitation, MM = Missing Value Source: NWS Daily Summary

Daily Weather History Graph

Daily Weather History Graph

Search for Another Location

Airport or City:

Trip Planner

Search our weather history database for the weather conditions in past years. The results will help you decide how hot, cold, wet, or windy it might be!

Date:

Astronomy

Dec. 05, 2012 Rise Set
Actual Time 7:52 AM PST 4:25 PM PST
Civil Twilight 7:16 AM PST 5:01 PM PST
Nautical Twilight 6:37 AM PST 5:40 PM PST
Astronomical Twilight 5:59 AM PST 6:18 PM PST
Moon 11:45 PM PST (12/5) 11:57 AM PST (12/5)
Length of Visible Light 9h 45m
Length of Day
8h 33m
Waning Gibbous, 58% of the Moon is Illuminated
Dec 5
Waning Gibbous
Dec 6
Last Quarter
Dec 13
New
Dec 19
First Quarter
Dec 28
Full

Hourly Weather History & Observations

Time (PST) Temp. Windchill Dew Point Humidity Pressure Visibility Wind Dir Wind Speed Gust Speed Precip Events Conditions
12:53 AM 41.0 °F 35.8 °F 36.0 °F 82% 29.87 in 5.0 mi WSW 8.1 mph - 0.00 in   Haze
1:53 AM 41.0 °F 35.2 °F 36.0 °F 82% 29.91 in 2.5 mi West 9.2 mph 24.2 mph 0.03 in Rain Light Rain
2:00 AM 41.0 °F 34.3 °F 35.6 °F 81% 29.91 in 6.0 mi West 11.5 mph - 0.00 in   Haze
2:53 AM 41.0 °F 34.3 °F 35.1 °F 79% 29.96 in 6.0 mi WSW 11.5 mph 17.3 mph 0.00 in   Haze
3:53 AM 42.1 °F 35.2 °F 36.0 °F 79% 29.99 in 6.0 mi West 12.7 mph 21.9 mph 0.00 in   Haze
4:53 AM 39.0 °F 34.8 °F 35.1 °F 86% 30.01 in 7.0 mi South 5.8 mph - 0.00 in   Scattered Clouds
6:53 AM 37.0 °F 34.5 °F 36.0 °F 96% 30.07 in 6.0 mi East 3.5 mph - 0.06 in   Partly Cloudy
7:53 AM 37.0 °F 31.6 °F 36.0 °F 96% 30.09 in 5.0 mi East 6.9 mph - N/A   Mostly Cloudy
8:53 AM 37.0 °F - 36.0 °F 96% 30.11 in 4.0 mi Calm Calm - N/A   Overcast
9:53 AM 42.1 °F 40.2 °F 39.0 °F 89% 30.14 in 5.0 mi East 3.5 mph - N/A   Overcast
10:53 AM 43.0 °F 41.3 °F 39.9 °F 89% 30.14 in 5.0 mi Variable 3.5 mph - N/A   Overcast
11:53 AM 45.0 °F - 41.0 °F 86% 30.14 in 5.0 mi Calm Calm - 0.00 in   Overcast
12:53 PM 46.0 °F 41.4 °F 37.9 °F 73% 30.14 in 5.0 mi SSW 9.2 mph - N/A   Haze
1:53 PM 46.9 °F - 39.0 °F 74% 30.14 in 6.0 mi SSW 8.1 mph - N/A   Haze
2:53 PM 45.0 °F 43.5 °F 39.9 °F 82% 30.14 in 3.0 mi SW 3.5 mph - 0.00 in Rain Light Rain
3:01 PM 44.6 °F 39.2 °F 41.0 °F 87% 30.14 in 4.0 mi SW 10.4 mph 16.1 mph 0.01 in Rain Light Rain
3:29 PM 44.6 °F 40.7 °F 39.2 °F 81% 30.14 in 5.0 mi SSW 6.9 mph - 0.01 in   Haze
3:53 PM 45.0 °F 41.8 °F 39.9 °F 82% 30.15 in 5.0 mi South 5.8 mph - 0.01 in   Haze
4:53 PM 44.1 °F 40.8 °F 39.9 °F 85% 30.15 in 7.0 mi SE 5.8 mph - N/A   Overcast
5:53 PM 43.0 °F 40.3 °F 39.9 °F 89% 30.16 in 6.0 mi SE 4.6 mph - N/A   Overcast
6:53 PM 43.0 °F - 39.9 °F 89% 30.16 in 6.0 mi Calm Calm - N/A   Overcast
7:49 PM 42.8 °F - 39.2 °F 87% 30.15 in 2.5 mi Calm Calm - 0.01 in Rain Light Rain
7:53 PM 42.1 °F - 39.9 °F 92% 30.15 in 2.5 mi Calm Calm - 0.02 in Rain Light Rain
8:05 PM 42.8 °F - 41.0 °F 93% 30.15 in 5.0 mi Calm Calm - 0.00 in Rain Light Rain
8:53 PM 42.1 °F - 41.0 °F 96% 30.15 in 6.0 mi Calm Calm - 0.00 in   Overcast
9:15 PM 41.0 °F 39.0 °F 39.2 °F 93% 30.14 in 7.0 mi ESE 3.5 mph - N/A   Overcast
9:40 PM 42.8 °F - 41.0 °F 93% 30.14 in 2.0 mi Calm Calm - 0.01 in Rain Rain
9:49 PM 42.8 °F - 41.0 °F 93% 30.14 in 1.8 mi Calm Calm - 0.03 in Rain Light Rain
9:53 PM 42.1 °F - 41.0 °F 96% 30.14 in 1.8 mi Calm Calm - 0.04 in Rain Rain
10:02 PM 42.8 °F - 41.0 °F 93% 30.14 in 2.5 mi Calm Calm - 0.02 in Rain Light Rain
10:16 PM 42.8 °F - 41.0 °F 93% 30.14 in 1.5 mi Calm Calm - 0.06 in Rain Light Rain
10:20 PM 42.8 °F - 41.0 °F 93% 30.14 in 3.0 mi Calm Calm - 0.07 in Rain Light Rain
10:53 PM 42.1 °F - 41.0 °F 96% 30.15 in 6.0 mi Calm Calm - 0.07 in   Overcast
11:30 PM 42.8 °F 41.1 °F 41.0 °F 93% 30.14 in 4.0 mi South 3.5 mph - 0.00 in Rain Light Rain
11:39 PM 42.8 °F 37.5 °F 41.0 °F 93% 30.15 in 1.8 mi SW 9.2 mph - 0.01 in Rain Rain
11:41 PM 42.8 °F 38.6 °F 41.0 °F 93% 30.15 in 1.2 mi WSW 6.9 mph - 0.02 in Rain Heavy Rain
11:53 PM 43.0 °F 39.5 °F 41.0 °F 93% 30.16 in 1.8 mi Variable 5.8 mph - 0.08 in Rain Rain